CFG29W EDDH-EDDL

Flight info

Callsign CFG29W
Flight time 0h 43m
Altitude 26000
Route HABFU1G HABFU Y348 MAWEQ Z718 OSNAD M170 HMM/N0413F240 T851 HALME HALME1A
Aircraft A320/M-SDE3FGHIRWY/LB1

Departure

Time 2026-05-06 19:25
Airport Hamburg Helmut Schmidt Airport (EDDH)

Arrival

Time 2026-05-06 20:08
Airport Düsseldorf Airport (EDDL)
Time Latitude Longitude Altitude Speed Heading
2026-05-06 18:49 53.63168 10.00371 51 ft 0 kts 87°
2026-05-06 18:54 53.63168 10.00370 51 ft 0 kts 87°
2026-05-06 19:13 53.63168 10.00369 51 ft 0 kts 87°
2026-05-06 19:14 53.63168 10.00366 51 ft 2 kts 87°
2026-05-06 19:14 53.63167 10.00339 51 ft 2 kts 87°
2026-05-06 19:15 53.63167 10.00311 51 ft 2 kts 88°
2026-05-06 19:15 53.63166 10.00283 51 ft 2 kts 93°
2026-05-06 19:15 53.63168 10.00255 50 ft 2 kts 141°
2026-05-06 19:15 53.63178 10.00248 48 ft 1 kts 175°
2026-05-06 19:17 53.63175 10.00248 47 ft 4 kts 175°
2026-05-06 19:17 53.63132 10.00252 51 ft 5 kts 176°
2026-05-06 19:17 53.63076 10.00259 48 ft 16 kts 181°
2026-05-06 19:17 53.62939 10.00126 51 ft 20 kts 212°
2026-05-06 19:18 53.62893 10.00077 51 ft 0 kts 212°
2026-05-06 19:18 53.62890 10.00074 51 ft 2 kts 215°
2026-05-06 19:18 53.62863 10.00019 52 ft 10 kts 239°
2026-05-06 19:18 53.62843 9.99955 50 ft 0 kts 243°
2026-05-06 19:19 53.62836 9.99933 49 ft 9 kts 243°
2026-05-06 19:19 53.62810 9.99834 53 ft 8 kts 266°
2026-05-06 19:19 53.62843 9.99762 53 ft 8 kts 329°
2026-05-06 19:19 53.62852 9.99754 53 ft 0 kts 333°
2026-05-06 19:23 53.62851 9.99754 53 ft 0 kts 333°
2026-05-06 19:24 53.62875 9.99735 51 ft 17 kts 334°
2026-05-06 19:24 53.63218 9.99441 51 ft 93 kts 333°
2026-05-06 19:24 53.63982 9.98778 50 ft 152 kts 333°
2026-05-06 19:25 53.64985 9.97948 588 ft 158 kts 338°
2026-05-06 19:25 53.65987 9.97116 1343 ft 163 kts 338°
2026-05-06 19:25 53.66997 9.96239 1983 ft 173 kts 338°
2026-05-06 19:25 53.68131 9.95252 2440 ft 192 kts 337°
2026-05-06 19:26 53.69375 9.94157 2904 ft 211 kts 337°
2026-05-06 19:26 53.70675 9.92858 3543 ft 225 kts 320°
2026-05-06 19:26 53.71433 9.90513 4356 ft 240 kts 282°
2026-05-06 19:26 53.71294 9.87568 4847 ft 266 kts 257°
2026-05-06 19:27 53.70758 9.84482 5602 ft 279 kts 252°
2026-05-06 19:27 53.70104 9.81381 6623 ft 281 kts 250°
2026-05-06 19:27 53.69400 9.78300 7628 ft 282 kts 249°
2026-05-06 19:27 53.68656 9.75226 8611 ft 286 kts 249°
2026-05-06 19:28 53.67949 9.72093 9469 ft 292 kts 251°
2026-05-06 19:28 53.67288 9.68831 10310 ft 300 kts 252°
2026-05-06 19:28 53.66626 9.65354 10637 ft 324 kts 253°
2026-05-06 19:28 53.65757 9.61732 11091 ft 341 kts 242°
2026-05-06 19:29 53.64409 9.58410 11854 ft 347 kts 229°
2026-05-06 19:29 53.62619 9.55658 12686 ft 351 kts 216°
2026-05-06 19:29 53.60509 9.53569 13535 ft 354 kts 208°
2026-05-06 19:29 53.58331 9.51598 14298 ft 357 kts 209°
2026-05-06 19:30 53.56878 9.50277 14781 ft 359 kts 209°
2026-05-06 19:30 53.53957 9.47614 15759 ft 362 kts 210°
2026-05-06 19:30 53.51736 9.45582 16495 ft 365 kts 210°
2026-05-06 19:30 53.49497 9.43529 17200 ft 368 kts 210°
2026-05-06 19:31 53.47239 9.41468 17902 ft 372 kts 210°
2026-05-06 19:31 53.44953 9.39387 18545 ft 375 kts 210°
2026-05-06 19:31 53.40322 9.35176 19682 ft 383 kts 210°
2026-05-06 19:32 53.38772 9.33768 19822 ft 383 kts 210°
2026-05-06 19:32 53.36423 9.31644 19894 ft 383 kts 209°
2026-05-06 19:32 53.34072 9.29538 19903 ft 383 kts 207°
2026-05-06 19:32 53.31590 9.27895 19903 ft 385 kts 197°
2026-05-06 19:33 53.28117 9.26706 19903 ft 386 kts 191°
2026-05-06 19:33 53.26330 9.26178 19901 ft 386 kts 191°
2026-05-06 19:33 53.23670 9.25388 20285 ft 390 kts 191°
2026-05-06 19:33 53.21029 9.24598 20936 ft 392 kts 191°
2026-05-06 19:34 53.18332 9.23793 21550 ft 395 kts 191°
2026-05-06 19:34 53.15614 9.22983 22144 ft 399 kts 191°
2026-05-06 19:34 53.12870 9.22167 22712 ft 402 kts 191°
2026-05-06 19:34 53.10103 9.21348 23274 ft 406 kts 191°
2026-05-06 19:35 53.07314 9.20527 23763 ft 409 kts 191°
2026-05-06 19:35 53.04505 9.19702 24223 ft 411 kts 191°
2026-05-06 19:35 53.01681 9.18871 24678 ft 413 kts 191°
2026-05-06 19:35 52.98839 9.18035 25126 ft 415 kts 191°
2026-05-06 19:36 52.96049 9.17053 25551 ft 417 kts 198°
2026-05-06 19:36 52.93334 9.15373 25832 ft 417 kts 206°
2026-05-06 19:36 52.90763 9.13155 25904 ft 417 kts 209°
2026-05-06 19:36 52.88206 9.10897 25900 ft 417 kts 209°
2026-05-06 19:37 52.85648 9.08646 25900 ft 417 kts 209°
2026-05-06 19:37 52.83085 9.06394 25896 ft 417 kts 209°
2026-05-06 19:37 52.80522 9.04151 25897 ft 417 kts 209°
2026-05-06 19:37 52.77963 9.01918 25893 ft 417 kts 209°
2026-05-06 19:38 52.75431 8.99714 25887 ft 417 kts 209°
2026-05-06 19:38 52.72864 8.97487 25886 ft 417 kts 209°
2026-05-06 19:38 52.70300 8.95262 25886 ft 417 kts 209°
2026-05-06 19:38 52.67732 8.93028 25883 ft 416 kts 209°
2026-05-06 19:39 52.65174 8.90802 25881 ft 416 kts 209°
2026-05-06 19:39 52.62611 8.88579 25881 ft 416 kts 209°
2026-05-06 19:39 52.60070 8.86308 25875 ft 415 kts 214°
2026-05-06 19:39 52.57880 8.83265 25874 ft 412 kts 229°
2026-05-06 19:40 52.56007 8.79712 25875 ft 412 kts 230°
2026-05-06 19:40 52.54169 8.76179 25872 ft 412 kts 230°
2026-05-06 19:40 52.52310 8.72591 25873 ft 412 kts 230°
2026-05-06 19:40 52.50454 8.69006 25873 ft 412 kts 230°
2026-05-06 19:41 52.48595 8.65428 25871 ft 412 kts 230°
2026-05-06 19:41 52.46730 8.61851 25873 ft 412 kts 230°
2026-05-06 19:41 52.44868 8.58282 25875 ft 412 kts 230°
2026-05-06 19:41 52.42999 8.54709 25877 ft 412 kts 230°
2026-05-06 19:42 52.41134 8.51153 25877 ft 412 kts 230°
2026-05-06 19:42 52.39264 8.47589 25878 ft 412 kts 230°
2026-05-06 19:42 52.37395 8.44035 25880 ft 412 kts 230°
2026-05-06 19:42 52.35549 8.40527 25881 ft 412 kts 229°
2026-05-06 19:43 52.33679 8.36983 25883 ft 412 kts 229°
2026-05-06 19:43 52.31808 8.33440 25882 ft 412 kts 229°
2026-05-06 19:43 52.29937 8.29904 25882 ft 411 kts 229°
2026-05-06 19:43 52.28065 8.26371 25881 ft 411 kts 229°
2026-05-06 19:44 52.26193 8.22838 25882 ft 411 kts 229°
2026-05-06 19:44 52.24326 8.19315 25883 ft 411 kts 229°
2026-05-06 19:44 52.22451 8.15786 25888 ft 411 kts 229°
2026-05-06 19:44 52.20602 8.12310 25890 ft 411 kts 229°
2026-05-06 19:45 52.18730 8.08787 25896 ft 411 kts 229°
2026-05-06 19:45 52.16852 8.05265 25898 ft 411 kts 229°
2026-05-06 19:45 52.14980 8.01760 25620 ft 408 kts 229°
2026-05-06 19:45 52.13145 7.98333 24968 ft 405 kts 229°
2026-05-06 19:46 52.11299 7.94891 24349 ft 402 kts 229°
2026-05-06 19:46 52.09468 7.91481 23731 ft 399 kts 229°
2026-05-06 19:46 52.07633 7.88115 23082 ft 396 kts 229°
2026-05-06 19:46 52.05793 7.84803 22444 ft 393 kts 228°
2026-05-06 19:47 52.03959 7.81537 21849 ft 390 kts 228°
2026-05-06 19:47 52.02132 7.78299 21272 ft 387 kts 228°
2026-05-06 19:47 52.00323 7.75089 20723 ft 384 kts 228°
2026-05-06 19:47 51.98531 7.71904 20189 ft 381 kts 228°
2026-05-06 19:48 51.96755 7.68753 19664 ft 377 kts 229°
2026-05-06 19:48 51.95013 7.65665 19147 ft 375 kts 229°
2026-05-06 19:48 51.93263 7.62562 18642 ft 372 kts 229°
2026-05-06 19:48 51.91583 7.59585 18157 ft 369 kts 229°
2026-05-06 19:49 51.89856 7.56528 17567 ft 367 kts 229°
2026-05-06 19:49 51.88141 7.53485 16970 ft 365 kts 229°
2026-05-06 19:49 51.86433 7.50460 16385 ft 364 kts 229°
2026-05-06 19:49 51.84724 7.47443 15816 ft 363 kts 229°
2026-05-06 19:50 51.83019 7.44444 15252 ft 362 kts 229°
2026-05-06 19:50 51.81318 7.41460 14708 ft 361 kts 229°
2026-05-06 19:50 51.79619 7.38477 14171 ft 360 kts 229°
2026-05-06 19:50 51.77919 7.35488 13939 ft 362 kts 229°
2026-05-06 19:51 51.76218 7.32500 13892 ft 362 kts 229°
2026-05-06 19:51 51.74533 7.29543 13900 ft 363 kts 229°
2026-05-06 19:51 51.72822 7.26547 13903 ft 363 kts 229°
2026-05-06 19:51 51.71107 7.23551 13900 ft 363 kts 229°
2026-05-06 19:52 51.69399 7.20573 13672 ft 360 kts 229°
2026-05-06 19:52 51.67701 7.17616 13092 ft 358 kts 229°
2026-05-06 19:52 51.66013 7.14676 12535 ft 356 kts 229°
2026-05-06 19:52 51.64336 7.11762 12038 ft 354 kts 229°
2026-05-06 19:53 51.62660 7.08858 11875 ft 354 kts 229°
2026-05-06 19:53 51.60993 7.05966 11573 ft 351 kts 229°
2026-05-06 19:53 51.59340 7.03098 11015 ft 349 kts 229°
2026-05-06 19:53 51.57717 7.00286 10484 ft 347 kts 229°
2026-05-06 19:54 51.56110 6.97501 10036 ft 345 kts 229°
2026-05-06 19:54 51.54493 6.94702 9883 ft 335 kts 229°
2026-05-06 19:54 51.52948 6.92043 9898 ft 316 kts 229°
2026-05-06 19:54 51.51489 6.89534 9911 ft 299 kts 229°
2026-05-06 19:55 51.50107 6.87161 9918 ft 283 kts 229°
2026-05-06 19:55 51.48812 6.84937 9922 ft 267 kts 229°
2026-05-06 19:55 51.47553 6.82772 9907 ft 263 kts 229°
2026-05-06 19:55 51.46307 6.80627 9919 ft 263 kts 229°
2026-05-06 19:56 51.45064 6.78492 9717 ft 261 kts 229°
2026-05-06 19:56 51.43842 6.76397 9357 ft 260 kts 229°
2026-05-06 19:56 51.42610 6.74288 9015 ft 259 kts 229°
2026-05-06 19:56 51.41381 6.72184 8664 ft 258 kts 229°
2026-05-06 19:57 51.40318 6.69904 8308 ft 255 kts 241°
2026-05-06 19:57 51.39436 6.67448 7948 ft 254 kts 243°
2026-05-06 19:57 51.38581 6.64985 7591 ft 253 kts 243°
2026-05-06 19:57 51.37730 6.62530 7238 ft 252 kts 243°
2026-05-06 19:58 51.36882 6.60086 6890 ft 251 kts 243°
2026-05-06 19:58 51.36037 6.57653 6543 ft 250 kts 243°
2026-05-06 19:58 51.35206 6.55262 6195 ft 249 kts 243°
2026-05-06 19:58 51.34366 6.52848 5833 ft 248 kts 243°
2026-05-06 19:59 51.33530 6.50442 5468 ft 247 kts 243°
2026-05-06 19:59 51.32697 6.48043 5107 ft 246 kts 243°
2026-05-06 19:59 51.31874 6.45664 4917 ft 245 kts 243°
2026-05-06 19:59 51.31050 6.43277 4916 ft 246 kts 243°
2026-05-06 20:00 51.30223 6.40879 4913 ft 246 kts 243°
2026-05-06 20:00 51.29386 6.38491 4918 ft 247 kts 239°
2026-05-06 20:00 51.28158 6.36608 4918 ft 248 kts 207°
2026-05-06 20:00 51.26521 6.35977 4919 ft 247 kts 175°
2026-05-06 20:01 51.24905 6.36736 4925 ft 243 kts 148°
2026-05-06 20:01 51.23469 6.38131 4889 ft 237 kts 144°
2026-05-06 20:01 51.22141 6.39521 4640 ft 223 kts 143°
2026-05-06 20:01 51.20865 6.40868 4213 ft 218 kts 143°
2026-05-06 20:02 51.19614 6.42190 3748 ft 215 kts 143°
2026-05-06 20:02 51.18371 6.43516 3253 ft 214 kts 141°
2026-05-06 20:02 51.17485 6.45296 3004 ft 204 kts 104°
2026-05-06 20:02 51.17340 6.47507 3005 ft 202 kts 86°
2026-05-06 20:03 51.17400 6.49748 3005 ft 202 kts 83°
2026-05-06 20:03 51.17479 6.51919 3001 ft 188 kts 83°
2026-05-06 20:03 51.17801 6.53827 3000 ft 173 kts 54°
2026-05-06 20:03 51.18488 6.55328 3005 ft 169 kts 51°
2026-05-06 20:04 51.19181 6.56828 2986 ft 167 kts 51°
2026-05-06 20:04 51.19879 6.58306 2836 ft 167 kts 51°
2026-05-06 20:04 51.20581 6.59776 2631 ft 166 kts 50°
2026-05-06 20:04 51.21281 6.61237 2425 ft 166 kts 50°
2026-05-06 20:05 51.21978 6.62691 2228 ft 164 kts 50°
2026-05-06 20:05 51.22671 6.64138 1978 ft 164 kts 50°
2026-05-06 20:05 51.23336 6.65528 1760 ft 151 kts 49°
2026-05-06 20:05 51.23936 6.66784 1553 ft 136 kts 50°
2026-05-06 20:06 51.24494 6.67949 1374 ft 130 kts 49°
2026-05-06 20:06 51.25042 6.69092 1197 ft 129 kts 49°
2026-05-06 20:06 51.25593 6.70213 985 ft 128 kts 48°
2026-05-06 20:06 51.26135 6.71345 794 ft 128 kts 50°
2026-05-06 20:07 51.26666 6.72483 635 ft 127 kts 51°
2026-05-06 20:07 51.27205 6.73615 450 ft 127 kts 50°
2026-05-06 20:07 51.27744 6.74742 266 ft 127 kts 50°
2026-05-06 20:07 51.28275 6.75865 159 ft 126 kts 50°
2026-05-06 20:08 51.28770 6.76904 128 ft 99 kts 54°
2026-05-06 20:08 51.28989 6.77362 129 ft 17 kts 56°
2026-05-06 20:08 51.29010 6.77547 128 ft 19 kts 114°
2026-05-06 20:08 51.28980 6.77598 123 ft 0 kts 139°
2026-05-06 20:09 51.28950 6.77633 127 ft 9 kts 149°
2026-05-06 20:09 51.28896 6.77621 127 ft 7 kts 212°
2026-05-06 20:10 51.28855 6.77545 128 ft 14 kts 232°
2026-05-06 20:10 51.28775 6.77377 128 ft 24 kts 232°
2026-05-06 20:10 51.28667 6.77148 126 ft 26 kts 233°
2026-05-06 20:10 51.28552 6.76908 124 ft 29 kts 233°
2026-05-06 20:11 51.28426 6.76644 126 ft 32 kts 232°
2026-05-06 20:11 51.28300 6.76380 127 ft 26 kts 233°
2026-05-06 20:11 51.28187 6.76142 129 ft 28 kts 232°
2026-05-06 20:11 51.28078 6.76046 127 ft 12 kts 172°
2026-05-06 20:12 51.28018 6.76106 128 ft 10 kts 123°
2026-05-06 20:12 51.27997 6.76167 126 ft 0 kts 119°